Location: Central Falls
(41.8900°N, 71.3929°W)
Time: 02:27:18
(UTC+00:00)

Vanguard 2 - Pass Details

Date: 03 December 2023
Orbit: 554 x 2918 km, 32.9° (Epoch: 01 March)

Event Time Altitude Azimuth Distance (km) Brightness Sun altitude
Rises 07:37:49 0° 274° (W) 5,487 - -47.1°
Reaches altitude 10° 07:42:39 10° 264° (W) 4,042 - -46.3°
Maximum altitude 07:50:27 26° 213° (SSW) 2,246 - -44.9°
Drops below altitude 10° 07:55:48 10° 158° (SSE) 2,688 - -43.9°
Exits shadow 07:58:04 - 146° (SE) 3,297 11.0 -43.5°
Sets 07:58:20 0° 145° (SE) 3,378 11.1 -43.4°
